KB1YYC Weather Reports


Display with metric or nautical units.
time (UTC)temp
F
wind
direction
speed
MPH
gust
MPH
rain 1hr
in
rain 24hr
in
rain mn
in
humidity
%
barometer
mb
20260507060407 51 319 1.0 1.0 0.00 0.01 0.01 99 1005.8
20260507055904 50 300 1.0 1.0 0.00 0.01 0.01 99 1005.6
20260507055359 51 285 1.0 1.0 0.00 0.01 0.01 99 1005.5
20260507054856 51 287 1.0 2.0 0.00 0.01 0.01 99 1005.8
20260507054352 51 273 0.0 2.0 0.00 0.01 0.01 99 1005.6
20260507053850 51 274 0.0 1.0 0.00 0.01 0.01 99 1005.3
20260507053347 51 280 1.0 1.0 0.00 0.01 0.01 99 1005.7
20260507052846 51 272 0.0 1.0 0.00 0.01 0.01 99 1005.4
20260507052342 51 284 1.0 1.0 0.00 0.01 0.01 99 1005.2
20260507051840 51 283 0.0 0.0 0.00 0.01 0.01 99 1005.2
20260507051338 51 270 0.0 1.0 0.00 0.01 0.01 99 1005.5
20260507050834 51 282 1.0 2.0 0.00 0.01 0.01 98 1005.4
20260507050330 51 293 2.0 3.0 0.00 0.01 0.01 98 1005.6
20260507045827 52 276 0.0 1.0 0.00 0.01 0.01 98 1005.4
20260507045324 52 298 1.0 2.0 0.00 0.01 0.01 98 1005.2
20260507044821 52 291 1.0 2.0 0.00 0.01 0.01 98 1005.3
20260507044318 52 293 1.0 2.0 0.00 0.01 0.01 98 1005.2
20260507043814 52 305 2.0 2.0 0.00 0.01 0.01 98 1005.0
20260507043311 52 334 3.0 5.0 0.00 0.01 0.01 98 1005.1
20260507042807 52 277 1.0 2.0 0.00 0.01 0.01 98 1004.9
20260507042306 53 283 1.0 1.0 0.00 0.01 0.01 98 1004.9
20260507041800 53 293 1.0 2.0 0.05 0.01 0.01 97 1005.1
20260507041256 53 295 1.0 1.0 0.00 0.00 0.00 97 1005.0
20260507040753 53 297 1.0 2.0 0.00 0.00 0.00 97 1004.9
20260507040249 53 285 2.0 2.0 0.07 0.00 0.00 97 1005.1
20260507035745 53 280 1.0 1.0 0.19 0.61 0.61 96 1004.9
20260507035241 54 262 2.0 2.0 0.24 0.60 0.60 96 1004.9
20260507034739 54 287 1.0 6.0 0.07 0.57 0.57 96 1004.9
20260507034235 55 310 5.0 6.0 0.00 0.56 0.56 96 1004.9
20260507033734 55 336 3.0 6.0 0.00 0.56 0.56 97 1005.0
20260507033231 55 285 0.0 2.0 0.00 0.56 0.56 98 1004.9
20260507032728 55 292 2.0 3.0 0.00 0.56 0.56 98 1004.8
20260507032224 56 291 2.0 3.0 0.00 0.56 0.56 98 1004.5
20260507031721 56 277 0.0 2.0 0.00 0.56 0.56 98 1004.4
20260507031217 56 283 2.0 6.0 0.00 0.56 0.56 99 1004.5
20260507030714 56 318 3.0 3.0 0.00 0.56 0.56 99 1004.3
20260507030212 57 300 1.0 2.0 0.00 0.56 0.56 99 1004.3
20260507025709 57 332 2.0 2.0 0.05 0.56 0.56 99 1004.2
20260507025206 57 275 1.0 3.0 0.05 0.56 0.56 99 1004.4
20260507024704 57 289 0.0 3.0 0.00 0.55 0.55 99 1004.5
20260507024201 58 262 0.0 2.0 0.00 0.55 0.55 99 1004.5
20260507023656 58 298 1.0 3.0 0.00 0.55 0.55 99 1004.4
20260507023154 58 305 2.0 3.0 0.00 0.55 0.55 99 1004.4
20260507022651 58 262 1.0 1.0 0.00 0.55 0.55 99 1004.4
20260507022146 58 275 1.0 2.0 0.00 0.55 0.55 99 1004.6
20260507021643 58 265 0.0 0.0 0.00 0.55 0.55 99 1004.5
20260507021138 58 251 0.0 2.0 0.00 0.55 0.55 99 1004.4
20260507020637 58 257 1.0 3.0 0.00 0.55 0.55 99 1004.6
20260507020132 58 247 1.0 1.0 0.00 0.55 0.55 99 1004.6
20260507015631 58 250 1.0 3.0 0.00 0.55 0.55 99 1004.5
20260507015128 58 261 1.0 2.0 0.00 0.55 0.55 99 1004.5
20260507014625 58 250 1.0 1.0 0.00 0.55 0.55 99 1004.6
20260507014121 58 261 2.0 2.0 0.00 0.55 0.55 99 1004.6
20260507013618 58 246 1.0 2.0 0.00 0.55 0.55 99 1004.8
20260507013115 57 253 1.0 3.0 0.00 0.55 0.55 99 1004.7
20260507012612 57 255 1.0 2.0 0.00 0.55 0.55 99 1004.9
20260507012107 56 260 1.0 1.0 0.00 0.55 0.55 99 1004.8
20260507011606 56 259 0.0 1.0 0.07 0.55 0.55 99 1004.7
20260507011101 56 266 0.0 2.0 0.07 0.55 0.55 99 1004.8
20260507010556 56 262 0.0 1.0 0.00 0.54 0.54 99 1004.8
20260507010053 56 259 0.0 0.0 0.00 0.54 0.54 99 1004.8
20260507005550 56 241 1.0 1.0 0.00 0.54 0.54 99 1005.0
20260507005046 56 246 1.0 1.0 0.00 0.54 0.54 99 1004.9
20260507004543 56 250 1.0 1.0 0.00 0.54 0.54 99 1005.0
20260507004041 56 262 0.0 2.0 0.00 0.54 0.54 99 1005.0
20260507003537 56 246 1.0 1.0 0.00 0.54 0.54 99 1004.9
20260507003032 56 258 0.0 2.0 0.00 0.54 0.54 99 1004.9
20260507002529 57 253 0.0 1.0 0.00 0.54 0.54 99 1004.7
20260507002025 57 247 1.0 1.0 0.00 0.54 0.54 99 1004.8
20260507001521 57 253 1.0 1.0 0.00 0.54 0.54 99 1004.9
20260507001019 57 259 1.0 2.0 0.00 0.54 0.54 99 1004.8
20260507000515 57 259 1.0 2.0 0.00 0.54 0.54 99 1004.7
20260507000010 57 236 1.0 3.0 0.00 0.54 0.54 99 1004.8
20260506235508 57 258 1.0 2.0 0.00 0.54 0.54 99 1004.8
20260506235004 57 247 1.0 2.0 0.00 0.54 0.54 99 1004.8
20260506234502 57 260 1.0 2.0 0.00 0.54 0.54 99 1004.9
20260506233958 57 245 1.0 2.0 0.00 0.54 0.54 99 1004.8
20260506233455 57 250 1.0 2.0 0.00 0.54 0.54 99 1004.7
20260506232951 58 238 2.0 2.0 0.00 0.54 0.54 99 1004.8
20260506232448 58 252 1.0 2.0 0.00 0.54 0.54 99 1004.8
20260506231943 58 261 1.0 5.0 0.00 0.54 0.54 99 1004.7
20260506231441 58 253 1.0 2.0 0.00 0.54 0.54 99 1004.8
20260506230938 58 260 1.0 2.0 0.00 0.54 0.54 99 1004.8
20260506230434 58 264 1.0 5.0 0.00 0.54 0.54 99 1004.9
20260506225931 58 248 1.0 2.0 0.00 0.54 0.54 99 1004.9
20260506225429 58 252 1.0 2.0 0.00 0.54 0.54 99 1004.8
20260506224926 58 237 2.0 7.0 0.00 0.54 0.54 99 1004.9
20260506224423 58 257 2.0 3.0 0.00 0.54 0.54 99 1004.9
20260506223919 58 251 4.0 5.0 0.00 0.54 0.54 99 1004.9
20260506223415 58 246 2.0 3.0 0.00 0.54 0.54 99 1005.2
20260506222912 59 254 1.0 5.0 0.00 0.54 0.54 99 1005.0
20260506222409 59 260 2.0 3.0 0.00 0.54 0.54 99 1005.1
20260506221906 59 234 1.0 3.0 0.00 0.54 0.54 99 1004.9
20260506221403 59 233 2.0 3.0 0.07 0.54 0.54 99 1005.0
20260506220900 59 267 1.0 3.0 0.07 0.54 0.54 99 1005.2
20260506220355 59 157 4.0 5.0 0.00 0.53 0.53 99 1005.3
20260506215852 58 256 2.0 2.0 0.05 0.53 0.53 99 1005.1
20260506215348 58 264 1.0 2.0 0.05 0.53 0.53 99 1005.4
20260506214844 58 258 1.0 2.0 0.00 0.52 0.52 99 1005.3
20260506214341 58 267 2.0 2.0 0.00 0.52 0.52 99 1005.3
20260506213839 58 263 0.0 2.0 0.00 0.52 0.52 99 1005.5
20260506213336 58 270 0.0 2.0 0.00 0.52 0.52 99 1005.5
20260506212833 58 263 1.0 2.0 0.00 0.52 0.52 99 1005.5
20260506212329 58 251 1.0 2.0 0.00 0.52 0.52 99 1005.6
20260506211824 58 248 1.0 3.0 0.07 0.52 0.52 99 1005.7
20260506211321 58 255 2.0 2.0 0.07 0.52 0.52 99 1005.7
20260506210818 58 264 1.0 2.0 0.00 0.51 0.51 99 1005.7
20260506210315 58 253 1.0 2.0 0.00 0.51 0.51 99 1005.8
20260506205812 58 236 2.0 2.0 0.05 0.51 0.51 99 1005.8
20260506205308 59 258 1.0 2.0 0.05 0.51 0.51 99 1005.9
20260506204805 59 237 2.0 2.0 0.07 0.50 0.50 99 1005.9
20260506204303 59 229 1.0 3.0 0.12 0.50 0.50 99 1005.8
20260506203800 59 253 2.0 3.0 0.12 0.49 0.49 99 1005.8
20260506203257 59 258 1.0 2.0 0.12 0.48 0.48 99 1006.1
20260506202754 59 258 1.0 2.0 0.12 0.47 0.47 99 1006.1
20260506202251 59 262 1.0 2.0 0.07 0.46 0.46 99 1006.0
20260506201747 59 236 1.0 2.0 0.00 0.45 0.45 99 1006.0
20260506201244 59 258 1.0 2.0 0.00 0.45 0.45 99 1005.9
20260506200741 59 261 0.0 1.0 0.05 0.45 0.45 99 1005.9
20260506200238 59 257 1.0 2.0 0.05 0.45 0.45 99 1006.0
20260506195734 60 254 1.0 1.0 0.07 0.44 0.44 98 1006.0
20260506195231 60 242 1.0 2.0 0.07 0.44 0.44 98 1006.0
20260506194728 60 248 1.0 1.0 0.00 0.43 0.43 98 1006.2
20260506194224 60 242 1.0 1.0 0.00 0.43 0.43 98 1006.2
20260506193722 59 262 0.0 1.0 0.05 0.43 0.43 98 1006.6
20260506193219 59 258 1.0 1.0 0.19 0.43 0.43 98 1006.4
20260506192715 60 253 1.0 1.0 0.12 0.41 0.41 98 1006.5
20260506192212 60 261 1.0 1.0 0.12 0.40 0.40 98 1006.6
20260506191709 60 258 1.0 2.0 0.05 0.38 0.38 98 1006.7
20260506191205 60 263 1.0 2.0 0.07 0.37 0.37 97 1006.7
20260506190702 60 255 1.0 1.0 0.05 0.36 0.36 97 1006.5
20260506190153 60 261 0.0 1.0 0.07 0.35 0.35 97 1006.6
20260506185651 60 266 1.0 1.0 0.19 0.35 0.35 97 1006.7
20260506185146 59 260 1.0 1.0 0.47 0.34 0.34 97 1006.8
20260506184645 59 247 1.0 2.0 0.83 0.32 0.32 97 1007.0
20260506184142 60 260 1.0 1.0 0.66 0.25 0.25 96 1007.3
20260506183638 60 259 1.0 1.0 0.54 0.18 0.18 95 1006.9
20260506183134 60 269 1.0 1.0 0.28 0.12 0.12 94 1007.1
20260506182632 60 262 1.0 1.0 0.24 0.08 0.08 94 1006.8
20260506182128 61 261 1.0 2.0 0.38 0.07 0.07 92 1006.3
20260506181626 62 264 1.0 2.0 0.12 0.03 0.03 90 1006.6
20260506181123 62 260 1.0 2.0 0.05 0.01 0.01 86 1006.5
20260506180620 64 251 1.0 2.0 0.00 0.00 0.00 85 1006.4
20260506180116 65 274 2.0 3.0 0.00 0.00 0.00 80 1006.3
20260506175613 66 262 1.0 2.0 0.00 0.00 0.00 76 1006.3
20260506175109 67 265 2.0 3.0 0.00 0.00 0.00 73 1006.2
20260506174608 68 248 1.0 2.0 0.00 0.00 0.00 72 1006.1
20260506174104 67 275 1.0 3.0 0.00 0.00 0.00 71 1006.3
20260506173602 67 213 3.0 3.0 0.00 0.00 0.00 71 1006.1
20260506173058 67 258 2.0 3.0 0.00 0.00 0.00 72 1006.4
20260506172556 67 255 1.0 3.0 0.00 0.00 0.00 72 1006.5
20260506172052 67 190 3.0 5.0 0.00 0.00 0.00 72 1006.5
20260506171549 67 271 1.0 3.0 0.00 0.00 0.00 72 1006.5
20260506171047 67 236 2.0 6.0 0.00 0.00 0.00 71 1006.7
20260506170544 67 221 3.0 5.0 0.00 0.00 0.00 72 1006.7
20260506170042 67 257 1.0 2.0 0.00 0.00 0.00 72 1006.9
20260506165540 67 196 3.0 3.0 0.00 0.00 0.00 72 1007.2
20260506165036 67 210 2.0 3.0 0.00 0.00 0.00 72 1007.3
20260506164533 67 264 1.0 3.0 0.00 0.00 0.00 72 1007.4
20260506164030 67 345 0.0 2.0 0.00 0.00 0.00 72 1007.2
20260506163526 67 254 1.0 3.0 0.00 0.00 0.00 72 1007.4
20260506163022 67 266 2.0 2.0 0.00 0.00 0.00 72 1007.3
20260506162518 68 240 1.0 3.0 0.00 0.00 0.00 70 1007.7
20260506162016 68 239 1.0 1.0 0.00 0.00 0.00 71 1007.8
20260506161513 67 232 1.0 2.0 0.00 0.00 0.00 72 1008.0
20260506161010 66 260 0.0 2.0 0.00 0.00 0.00 72 1008.0
20260506160508 67 252 1.0 2.0 0.00 0.00 0.00 72 1008.3
20260506160005 66 309 1.0 2.0 0.00 0.00 0.00 72 1008.2
20260506155502 66 250 1.0 2.0 0.00 0.00 0.00 73 1008.5
20260506153634 66 243 2.0 2.0 0.00 0.00 0.00 74 1008.7
20260506153132 66 226 2.0 5.0 0.00 0.00 0.00 72 1008.7
20260506152628 67 263 0.0 5.0 0.00 0.00 0.00 71 1008.5
20260506152126 66 266 0.0 2.0 0.00 0.00 0.00 72 1008.4
20260506151625 65 248 1.0 2.0 0.00 0.00 0.00 74 1008.5
20260506151121 65 253 2.0 3.0 0.00 0.00 0.00 74 1008.6
20260506150618 65 232 1.0 2.0 0.00 0.00 0.00 73 1008.6
20260506150115 66 263 1.0 2.0 0.00 0.00 0.00 73 1008.6
20260506145612 65 246 1.0 2.0 0.00 0.00 0.00 75 1008.7
20260506145109 66 262 1.0 2.0 0.00 0.00 0.00 74 1008.5
20260506144606 67 255 1.0 1.0 0.00 0.00 0.00 71 1008.5
20260506144102 67 295 2.0 3.0 0.00 0.00 0.00 72 1008.5
20260506143601 67 266 0.0 1.0 0.00 0.00 0.00 72 1008.3
20260506143058 66 275 1.0 2.0 0.00 0.00 0.00 72 1008.3
20260506142556 66 256 1.0 2.0 0.00 0.00 0.00 72 1008.3
20260506142054 66 262 1.0 3.0 0.00 0.00 0.00 73 1008.2
20260506141551 66 256 2.0 3.0 0.00 0.00 0.00 72 1008.5
20260506141050 66 257 2.0 3.0 0.00 0.00 0.00 73 1008.4
20260506140547 66 268 0.0 1.0 0.00 0.00 0.00 73 1008.7
20260506140044 65 272 1.0 2.0 0.00 0.00 0.00 75 1008.6
20260506135541 65 268 1.0 3.0 0.00 0.00 0.00 74 1008.8
20260506135037 65 268 2.0 2.0 0.00 0.00 0.00 74 1009.0
20260506134533 65 250 2.0 5.0 0.00 0.00 0.00 74 1008.9
20260506134029 65 262 1.0 2.0 0.00 0.00 0.00 74 1008.8
20260506133527 65 273 0.0 2.0 0.00 0.00 0.00 74 1009.0
20260506133024 65 262 0.0 1.0 0.00 0.00 0.00 75 1008.8
20260506132521 65 258 0.0 2.0 0.00 0.00 0.00 74 1008.9
20260506132018 64 262 1.0 1.0 0.00 0.00 0.00 75 1008.7
20260506131515 64 271 1.0 2.0 0.00 0.00 0.00 75 1008.8
20260506131012 64 278 1.0 3.0 0.00 0.00 0.00 76 1008.8
20260506130508 64 253 2.0 2.0 0.00 0.00 0.00 76 1008.7
20260506130006 63 318 0.0 2.0 0.00 0.00 0.00 77 1008.8
20260506125504 62 270 1.0 2.0 0.00 0.00 0.00 78 1008.7
20260506125001 61 273 0.0 1.0 0.00 0.00 0.00 79 1008.7
20260506124459 61 251 1.0 2.0 0.00 0.00 0.00 79 1008.7
20260506123957 61 260 0.0 1.0 0.00 0.00 0.00 79 1009.0
20260506123455 61 269 0.0 1.0 0.00 0.00 0.00 78 1008.9
20260506122952 60 257 0.0 0.0 0.00 0.00 0.00 78 1008.9
20260506122449 59 257 0.0 1.0 0.00 0.00 0.00 80 1009.1
20260506121947 59 270 0.0 1.0 0.00 0.00 0.00 80 1009.0
20260506121444 58 247 1.0 2.0 0.00 0.00 0.00 82 1008.9
20260506120940 57 245 1.0 2.0 0.00 0.00 0.00 83 1008.9
20260506120438 57 254 1.0 1.0 0.00 0.00 0.00 83 1009.3
20260506115935 57 266 0.0 1.0 0.00 0.00 0.00 84 1009.3
20260506115433 57 258 1.0 1.0 0.00 0.00 0.00 84 1009.2
20260506114931 57 264 1.0 1.0 0.00 0.00 0.00 84 1009.3
20260506114429 56 260 1.0 1.0 0.00 0.00 0.00 85 1009.0
20260506113927 56 242 1.0 1.0 0.00 0.00 0.00 85 1009.1
20260506113425 55 265 0.0 0.0 0.00 0.00 0.00 85 1009.5
20260506112921 55 258 1.0 1.0 0.00 0.00 0.00 86 1009.4
20260506112419 55 265 0.0 1.0 0.00 0.00 0.00 86 1009.4
20260506111916 55 265 0.0 0.0 0.00 0.00 0.00 85 1009.7
20260506111414 54 270 0.0 0.0 0.00 0.00 0.00 86 1009.7
20260506110911 54 266 0.0 0.0 0.00 0.00 0.00 86 1009.5
20260506110408 54 257 0.0 1.0 0.00 0.00 0.00 87 1009.4
20260506105905 54 251 1.0 1.0 0.00 0.00 0.00 87 1009.9
20260506105401 53 269 0.0 0.0 0.00 0.00 0.00 88 1009.9
20260506104859 53 264 0.0 0.0 0.00 0.00 0.00 88 1009.6
20260506104356 53 268 0.0 1.0 0.00 0.00 0.00 88 1009.6
20260506103854 53 245 1.0 1.0 0.00 0.00 0.00 88 1009.6
20260506103351 53 267 0.0 0.0 0.00 0.00 0.00 88 1009.5
20260506102848 53 270 0.0 0.0 0.00 0.00 0.00 88 1009.4
20260506102346 53 268 0.0 0.0 0.00 0.00 0.00 88 1009.3
20260506101843 53 265 0.0 0.0 0.00 0.00 0.00 88 1009.2
20260506101339 53 244 1.0 1.0 0.00 0.00 0.00 89 1009.3
20260506100837 53 256 1.0 1.0 0.00 0.00 0.00 89 1009.2
20260506100335 53 277 0.0 0.0 0.00 0.00 0.00 89 1009.4
20260506095833 53 272 0.0 0.0 0.00 0.00 0.00 89 1009.3
20260506095330 53 264 0.0 0.0 0.00 0.00 0.00 89 1009.1
20260506094827 53 268 0.0 0.0 0.00 0.00 0.00 89 1009.1
20260506094326 53 265 0.0 0.0 0.00 0.00 0.00 89 1009.3
20260506093824 53 268 0.0 0.0 0.00 0.00 0.00 88 1009.2
20260506093320 53 269 0.0 0.0 0.00 0.00 0.00 87 1009.3
20260506092818 53 265 0.0 0.0 0.00 0.00 0.00 87 1009.0
20260506092316 54 265 0.0 0.0 0.00 0.00 0.00 87 1009.0
20260506091812 54 264 0.0 0.0 0.00 0.00 0.00 86 1009.0
20260506091310 54 262 0.0 0.0 0.00 0.00 0.00 86 1009.1
20260506090808 55 260 0.0 0.0 0.00 0.00 0.00 86 1009.3
20260506090305 55 268 0.0 0.0 0.00 0.00 0.00 85 1009.1
20260506085801 55 267 0.0 0.0 0.00 0.00 0.00 84 1009.2
20260506085257 56 255 0.0 0.0 0.00 0.00 0.00 83 1009.1
20260506084754 56 266 0.0 0.0 0.00 0.00 0.00 82 1009.2
20260506084251 56 266 0.0 0.0 0.00 0.00 0.00 81 1009.2
20260506083748 57 258 0.0 0.0 0.00 0.00 0.00 80 1009.1
20260506083245 57 267 0.0 0.0 0.00 0.00 0.00 80 1009.0
20260506082743 58 263 0.0 0.0 0.00 0.00 0.00 79 1008.9
20260506082238 59 237 1.0 2.0 0.00 0.00 0.00 77 1008.9
20260506081736 60 231 2.0 2.0 0.00 0.00 0.00 75 1008.9
20260506081233 60 261 1.0 1.0 0.00 0.00 0.00 74 1009.0
20260506080731 60 250 1.0 2.0 0.00 0.00 0.00 74 1008.7
20260506080227 60 266 0.0 0.0 0.00 0.00 0.00 74 1008.9
20260506073211 61 267 0.0 1.0 0.00 0.00 0.00 73 1008.9
20260506072708 61 268 1.0 2.0 0.00 0.00 0.00 72 1008.8
20260506072206 61 267 1.0 2.0 0.00 0.00 0.00 71 1008.6
20260506071703 61 266 0.0 1.0 0.00 0.00 0.00 72 1008.6
20260506071201 61 265 0.0 1.0 0.00 0.00 0.00 72 1008.5
20260506070657 61 273 0.0 0.0 0.00 0.00 0.00 72 1008.5
20260506070154 62 265 0.0 2.0 0.00 0.00 0.00 71 1008.5
20260506062131 54 235 1.0 1.0 0.00 0.00 0.00 87 1008.2
20260506061627 54 255 0.0 1.0 0.00 0.00 0.00 88 1008.3
20260506061125 54 266 0.0 1.0 0.00 0.00 0.00 88 1008.3
20260506060624 53 276 0.0 1.0 0.00 0.00 0.00 88 1008.3